This is the latest recevied weather packets stored in our database for station/object K1RFS. If no packets are shown the sender has not sent any weather packets the latest 10 day(s).
| Time | Temp. | Humidity | Pressure | Rain* | Wind** | Luminosity | Snow |
|---|---|---|---|---|---|---|---|
| 1788206923 | 28.33° C | 37% | 1002.4 hPa | 0 mm | - | 404 W/m² | - |
| 1788206617 | 28.33° C | 36% | 1002.5 hPa | 0 mm | - | 309 W/m² | - |
| 1788206313 | 28.89° C | 35% | 1002.6 hPa | 0 mm | - | 553 W/m² | - |
| 1788206008 | 28.33° C | 35% | 1002.4 hPa | 0 mm | - | 409 W/m² | - |
| 1788205704 | 28.33° C | 36% | 1002.8 hPa | 0 mm | - | 347 W/m² | - |
| 1788205399 | 27.78° C | 37% | 1002.8 hPa | 0 mm | - | 521 W/m² | - |
| 1788205098 | 27.78° C | 37% | 1002.9 hPa | 0 mm | - | 361 W/m² | - |
| 1788204793 | 27.78° C | 37% | 1003 hPa | 0 mm | - | 462 W/m² | - |
| 1788204488 | 26.67° C | 39% | 1003.3 hPa | 0 mm | - | 423 W/m² | - |
| 1788204183 | 26.11° C | 39% | 1003.1 hPa | 0 mm | - | 662 W/m² | - |
| 1788203879 | 26.11° C | 39% | 1003.4 hPa | 0 mm | - | 291 W/m² | - |
| 1788203576 | 25.56° C | 40% | 1003.4 hPa | 0 mm | - | 184 W/m² | - |
| 1788203271 | 25.56° C | 40% | 1003.4 hPa | 0 mm | - | 208 W/m² | - |
| 1788202971 | 25.56° C | 42% | 1003.6 hPa | 0 mm | - | 171 W/m² | - |
| 1788202670 | 25.56° C | 42% | 1003.4 hPa | 0 mm | - | 224 W/m² | - |
| 1788202366 | 25° C | 42% | 1003.6 hPa | 0 mm | - | 188 W/m² | - |
| 1788202065 | 25° C | 43% | 1003.6 hPa | 0 mm | - | 169 W/m² | - |
| 1788201761 | 24.44° C | 44% | 1003.7 hPa | 0 mm | - | 150 W/m² | - |
| 1788201456 | 24.44° C | 43% | 1003.6 hPa | 0 mm | - | 123 W/m² | - |
| 1788201156 | 24.44° C | 41% | 1003.7 hPa | 0 mm | - | 110 W/m² | - |
| 1788200855 | 24.44° C | 42% | 1003.8 hPa | 0 mm | - | 126 W/m² | - |
| 1788200550 | 24.44° C | 44% | 1003.8 hPa | 0 mm | - | 131 W/m² | - |
| 1788200250 | 24.44° C | 44% | 1004.1 hPa | 0 mm | - | 147 W/m² | - |
| 1788199946 | 24.44° C | 43% | 1004.1 hPa | 0 mm | - | 139 W/m² | - |
| 1788199640 | 24.44° C | 43% | 1004.1 hPa | 0 mm | - | 149 W/m² | - |
* Rain latest hour (hover to see other rain measurements)
** Current wind speed in m/s (hover to see current wind gust speed)